GW0378 Weather Reports


time (UTC)temp
C
wind
direction
speed
KPH
gust
KPH
rain 1hr
cm
rain 24hr
cm
rain mn
cm
humidity
%
barometer
mb
20260904022018 13 110 4.8 8.0 0.00 0.20 0.20 77 1010.4
20260904021513 13 102 4.8 6.4 0.00 0.20 0.20 76 1010.3
20260904021009 13 108 4.8 4.8 0.00 0.20 0.20 77 1010.8
20260904020503 13 85 3.2 4.8 0.00 0.20 0.20 78 1010.6
20260904020003 13 90 1.6 3.2 0.00 0.20 0.20 76 1010.4
20260904015458 13 105 3.2 4.8 0.00 0.20 0.20 76 1010.5
20260904014956 14 110 3.2 4.8 0.00 0.20 0.20 75 1010.8
20260904014451 14 95 3.2 4.8 0.00 0.20 0.20 73 1010.7
20260904013947 14 111 4.8 4.8 0.00 0.20 0.20 74 1010.8
20260904013443 15 113 4.8 4.8 0.00 0.20 0.20 71 1010.7
20260904012939 15 79 4.8 4.8 0.00 0.20 0.20 66 1010.8
20260904012438 16 52 3.2 3.2 0.00 0.20 0.20 69 1010.7
20260904011933 16 90 0.0 3.2 0.00 0.20 0.20 68 1010.9
20260904011427 15 117 3.2 3.2 0.00 0.20 0.20 72 1010.9
20260904010923 16 90 0.0 3.2 0.00 0.20 0.20 69 1010.9
20260904010420 16 66 3.2 3.2 0.00 0.20 0.20 67 1011.1
20260904005914 16 114 6.4 6.4 0.00 0.20 0.20 64 1010.9
20260904005410 17 26 1.6 3.2 0.00 0.20 0.20 65 1011.1
20260904004904 17 20 0.0 3.2 0.00 0.20 0.20 69 1011.4
20260904004401 16 32 0.0 3.2 0.00 0.20 0.20 69 1011.5
20260904003901 16 151 0.0 3.2 0.00 0.20 0.20 72 1011.1
20260904003356 16 23 0.0 4.8 0.00 0.20 0.20 73 1011.4
20260904002851 16 23 3.2 6.4 0.00 0.20 0.20 71 1011.3
20260904002348 16 121 4.8 4.8 0.00 0.20 0.20 72 1011.5
20260904001847 16 108 0.0 3.2 0.00 0.20 0.20 71 1011.4
20260904001343 16 57 0.0 4.8 0.00 0.20 0.20 73 1011.6
20260904000837 16 60 0.0 4.8 0.00 0.20 0.20 73 1011.5
20260904000336 16 48 3.2 3.2 0.00 0.20 0.20 73 1011.6
20260903235831 16 98 1.6 6.4 0.00 0.20 0.20 75 1011.5
20260903235327 16 69 0.0 3.2 0.00 0.20 0.20 69 1011.7
20260903234826 16 15 1.6 3.2 0.00 0.20 0.20 71 1011.9
20260903234323 16 90 4.8 4.8 0.00 0.20 0.20 76 1011.9
20260903233819 15 107 3.2 4.8 0.00 0.20 0.20 75 1011.9
20260903233315 15 192 1.6 3.2 0.00 0.20 0.20 84 1012.1
20260903232814 15 103 0.0 4.8 0.00 0.20 0.20 86 1011.9
20260903232310 15 90 4.8 6.4 0.05 0.20 0.20 84 1012.0
20260903231809 15 174 1.6 3.2 0.18 0.20 0.20 83 1012.4
20260903231304 15 107 3.2 3.2 0.18 0.20 0.20 81 1012.6
20260903230759 15 293 4.8 6.4 0.05 0.18 0.18 78 1012.5
20260903230254 15 255 8.0 9.7 0.00 0.18 0.18 77 1012.4
20260903225750 15 279 6.4 9.7 0.00 0.18 0.18 75 1012.4
20260903225246 15 279 3.2 6.4 0.00 0.18 0.18 72 1012.3
20260903224742 16 285 8.0 11.3 0.00 0.18 0.18 72 1011.9
20260903224238 16 270 4.8 14.5 0.00 0.18 0.18 73 1012.0
20260903223733 16 324 3.2 8.0 0.00 0.18 0.18 72 1012.0
20260903223232 16 355 3.2 6.4 0.00 0.18 0.18 73 1012.0
20260903222727 16 180 0.0 4.8 0.05 0.18 0.18 75 1012.0
20260903222226 16 165 1.6 4.8 0.05 0.18 0.18 78 1012.3
20260903221721 16 190 0.0 3.2 0.05 0.15 0.15 78 1012.1
20260903221220 16 188 0.0 6.4 0.05 0.15 0.15 75 1011.9
20260903220718 16 294 4.8 4.8 0.00 0.15 0.15 75 1012.0
20260903220213 16 286 4.8 9.7 0.00 0.15 0.15 73 1012.0
20260903215712 16 247 8.0 11.3 0.00 0.15 0.15 73 1012.0
20260903215208 16 270 0.0 4.8 0.00 0.15 0.15 76 1012.1
20260903214706 16 323 3.2 6.4 0.00 0.15 0.15 76 1012.0
20260903214202 16 285 1.6 3.2 0.00 0.15 0.15 75 1011.8
20260903213656 16 6 0.0 4.8 0.00 0.15 0.15 73 1012.0
20260903213152 16 233 3.2 8.0 0.00 0.15 0.15 74 1011.7
20260903212648 16 7 1.6 4.8 0.00 0.15 0.15 74 1012.3
20260903212144 17 90 0.0 6.4 0.18 0.15 0.15 81 1012.0
20260903211638 16 154 0.0 3.2 0.36 0.15 0.15 79 1011.7
20260903211135 15 285 1.6 4.8 0.23 0.13 0.13 77 1012.0
20260903210630 16 321 4.8 4.8 0.13 0.10 0.10 69 1011.9
20260903210125 16 194 3.2 3.2 0.05 0.08 0.08 67 1012.1
20260903205619 16 199 3.2 4.8 0.00 0.08 0.08 63 1011.9
20260903205119 16 228 3.2 6.4 0.00 0.08 0.08 61 1011.9
20260903204614 17 289 1.6 6.4 0.00 0.08 0.08 60 1011.8
20260903204110 17 267 4.8 8.0 0.00 0.08 0.08 61 1012.1
20260903203606 17 314 6.4 6.4 0.00 0.08 0.08 63 1011.9
20260903203106 17 0 3.2 9.7 0.00 0.08 0.08 66 1011.9
20260903202556 17 288 14.5 14.5 0.00 0.08 0.08 63 1012.0
20260903202051 18 321 8.0 11.3 0.00 0.08 0.08 62 1011.8
20260903201545 18 261 0.0 11.3 0.00 0.08 0.08 58 1011.8
20260903201044 18 53 0.0 8.0 0.00 0.08 0.08 67 1011.7
20260903200539 17 212 8.0 11.3 0.00 0.08 0.08 66 1011.7
20260903200034 17 106 0.0 3.2 0.00 0.08 0.08 68 1011.8
20260903195531 16 90 1.6 4.8 0.05 0.08 0.08 76 1011.9
20260903195026 15 217 6.4 6.4 0.23 0.08 0.08 78 1012.1
20260903194521 14 249 4.8 14.5 0.18 0.05 0.05 73 1012.0
20260903194016 15 274 4.8 14.5 0.05 0.03 0.03 75 1012.4
20260903193513 16 276 4.8 8.0 0.05 0.03 0.03 66 1012.4
20260903193007 16 280 6.4 6.4 0.00 0.00 0.00 63 1012.3
20260903192459 16 18 1.6 4.8 0.00 0.00 0.00 64 1012.1
20260903191959 16 252 4.8 8.0 0.00 0.00 0.00 62 1012.1
20260903191454 17 298 4.8 9.7 0.00 0.00 0.00 61 1012.1
20260903190949 17 275 9.7 9.7 0.00 0.00 0.00 64 1012.1
20260903190448 17 273 4.8 8.0 0.00 0.00 0.00 65 1012.1
20260903185943 17 0 4.8 8.0 0.00 0.00 0.00 65 1012.0
20260903185439 16 5 3.2 9.7 0.00 0.00 0.00 64 1012.1
20260903184939 16 90 3.2 6.4 0.00 0.00 0.00 67 1012.4
20260903184436 16 270 1.6 6.4 0.00 0.00 0.00 69 1012.4
20260903183930 16 302 4.8 4.8 0.00 0.00 0.00 70 1012.6
20260903183425 15 285 4.8 4.8 0.00 0.00 0.00 71 1012.5
20260903182924 16 33 3.2 3.2 0.00 0.00 0.00 74 1012.5
20260903182423 15 131 3.2 3.2 0.00 0.00 0.00 72 1012.7
20260903181918 15 342 1.6 6.4 0.00 0.00 0.00 76 1012.6
20260903181413 15 307 3.2 8.0 0.00 0.00 0.00 77 1012.5
20260903180912 15 307 3.2 4.8 0.05 0.00 0.00 77 1012.6
20260903180407 14 270 0.0 4.8 0.00 0.00 0.00 74 1012.9
20260903175907 14 248 3.2 6.4 0.00 0.00 0.00 74 1012.9
20260903175401 15 328 4.8 6.4 0.00 0.00 0.00 74 1013.0
20260903174855 15 309 3.2 4.8 0.00 0.00 0.00 73 1012.9
20260903174350 15 279 3.2 4.8 0.00 0.00 0.00 75 1013.0
20260903173844 15 257 0.0 1.6 0.00 0.00 0.00 73 1013.0
20260903173340 15 47 4.8 4.8 0.00 0.00 0.00 75 1013.1
20260903172836 15 57 0.0 6.4 0.00 0.00 0.00 77 1012.9
20260903172330 13 172 0.0 3.2 0.00 0.00 0.00 79 1013.0
20260903171826 13 215 0.0 4.8 0.00 0.00 0.00 81 1013.0
20260903171321 12 83 4.8 4.8 0.00 0.00 0.00 82 1012.9
20260903170820 12 29 0.0 3.2 0.00 0.00 0.00 84 1013.0
20260903170316 12 330 3.2 3.2 0.00 0.00 0.00 83 1013.1
20260903165814 12 26 0.0 8.0 0.00 0.00 0.00 84 1013.1
20260903165308 12 282 1.6 6.4 0.00 0.00 0.00 84 1013.1
20260903164803 12 270 0.0 3.2 0.00 0.00 0.00 84 1013.2
20260903164259 12 270 0.0 4.8 0.00 0.00 0.00 85 1012.9
20260903163757 12 283 3.2 8.0 0.00 0.00 0.00 85 1012.7
20260903163254 12 327 3.2 4.8 0.00 0.00 0.00 85 1012.7
20260903162752 12 262 0.0 6.4 0.00 0.00 0.00 85 1012.6
20260903162246 12 305 4.8 11.3 0.00 0.00 0.00 83 1012.5
20260903161742 13 303 3.2 6.4 0.00 0.00 0.00 83 1012.5
20260903161237 13 270 3.2 6.4 0.00 0.00 0.00 83 1012.5
20260903160733 12 72 3.2 6.4 0.00 0.00 0.00 85 1012.4
20260903160231 12 270 0.0 4.8 0.00 0.00 0.00 85 1012.3
20260903155730 12 66 0.0 4.8 0.00 0.00 0.00 86 1012.4
20260903155225 12 293 4.8 6.4 0.00 0.00 0.00 86 1012.3
20260903154720 12 84 4.8 4.8 0.00 0.00 0.00 86 1012.5
20260903154216 11 342 1.6 4.8 0.00 0.00 0.00 88 1012.6
20260903153712 11 345 1.6 4.8 0.00 0.00 0.00 89 1012.5
20260903153208 10 114 0.0 1.6 0.00 0.00 0.00 90 1012.8
20260903152704 10 319 6.4 6.4 0.00 0.00 0.00 92 1012.8
20260903152200 10 165 0.0 3.2 0.00 0.00 0.00 93 1012.5
20260903151700 10 240 3.2 4.8 0.00 0.00 0.00 94 1012.6
20260903151155 10 274 4.8 6.4 0.00 0.00 0.00 93 1012.7
20260903150655 10 270 1.6 4.8 0.00 0.00 0.00 94 1012.6
20260903150150 9 279 0.0 3.2 0.00 0.00 0.00 94 1012.6
20260903145649 9 270 0.0 6.4 0.00 0.00 0.00 94 1012.5
20260903145145 9 264 3.2 6.4 0.00 0.00 0.00 94 1012.8
20260903144643 10 228 3.2 6.4 0.00 0.00 0.00 93 1012.4
20260903144140 10 346 4.8 4.8 0.00 0.00 0.00 94 1012.1
20260903143636 9 74 0.0 3.2 0.00 0.00 0.00 94 1012.4
20260903143131 9 337 1.6 3.2 0.00 0.00 0.00 94 1012.4
20260903142627 9 279 0.0 4.8 0.00 0.00 0.00 94 1012.1
20260903142123 9 60 1.6 3.2 0.00 0.00 0.00 95 1012.3
20260903141619 9 18 0.0 4.8 0.00 0.00 0.00 95 1012.1
20260903141113 8 77 1.6 4.8 0.00 0.00 0.00 95 1012.1
20260903140610 9 328 1.6 4.8 0.00 0.00 0.00 94 1012.0
20260903140105 9 235 3.2 3.2 0.00 0.00 0.00 94 1012.0
20260903135601 9 65 3.2 4.8 0.00 0.00 0.00 94 1011.8
20260903135101 9 173 0.0 4.8 0.00 0.00 0.00 94 1012.0
20260903134559 9 102 3.2 8.0 0.00 0.00 0.00 93 1011.9
20260903134055 9 90 1.6 4.8 0.00 0.00 0.00 94 1011.7
20260903133553 8 102 1.6 9.7 0.00 0.00 0.00 94 1011.5
20260903133049 8 60 4.8 4.8 0.00 0.00 0.00 95 1011.6
20260903132543 8 42 4.8 9.7 0.00 0.00 0.00 95 1011.5
20260903132038 8 98 1.6 4.8 0.00 0.00 0.00 95 1011.7
20260903131532 8 99 0.0 3.2 0.00 0.00 0.00 95 1011.6
20260903131032 8 105 0.0 4.8 0.00 0.00 0.00 95 1011.4
20260903130526 8 23 0.0 1.6 0.00 0.00 0.00 96 1011.5
20260903130021 8 41 3.2 6.4 0.00 0.00 0.00 96 1011.5
20260903125519 8 81 3.2 6.4 0.00 0.00 0.00 96 1011.1
20260903125015 8 90 1.6 3.2 0.00 0.00 0.00 96 1011.3
20260903124509 8 90 0.0 3.2 0.00 0.00 0.00 96 1011.4
20260903124008 8 291 0.0 3.2 0.00 0.00 0.00 96 1011.1
20260903123504 8 81 0.0 3.2 0.00 0.00 0.00 96 1011.0
20260903123002 8 120 1.6 6.4 0.00 0.00 0.00 95 1011.1
20260903122456 8 120 0.0 1.6 0.00 0.00 0.00 95 1011.0
20260903121956 8 154 3.2 3.2 0.00 0.00 0.00 95 1010.9
20260903121450 8 191 1.6 4.8 0.00 0.00 0.00 95 1011.0
20260903120947 8 23 3.2 4.8 0.00 0.00 0.00 95 1010.9
20260903120445 8 49 4.8 4.8 0.00 0.00 0.00 96 1010.8
20260903115944 8 106 6.4 9.7 0.00 0.00 0.00 96 1011.0
20260903115443 8 30 3.2 4.8 0.00 0.00 0.00 96 1011.0
20260903114938 8 29 1.6 4.8 0.00 0.00 0.00 96 1010.9
20260903114434 8 74 3.2 4.8 0.00 0.00 0.00 96 1010.9
20260903113929 8 112 3.2 4.8 0.00 0.00 0.00 96 1011.4
20260903113425 8 15 0.0 3.2 0.00 0.00 0.00 96 1011.1
20260903112921 8 90 3.2 3.2 0.00 0.00 0.00 96 1010.9
20260903112416 8 286 0.0 3.2 0.00 0.00 0.00 96 1011.1
20260903111915 8 48 3.2 3.2 0.00 0.00 0.00 96 1011.1
20260903111415 8 90 3.2 3.2 0.00 0.00 0.00 96 1011.3
20260903110911 8 98 0.0 4.8 0.00 0.00 0.00 96 1011.1
20260903110407 8 99 0.0 3.2 0.00 0.00 0.00 96 1010.8
20260903105901 8 96 1.6 3.2 0.00 0.00 0.00 96 1010.8
20260903105357 8 81 0.0 3.2 0.00 0.00 0.00 96 1010.9
20260903104856 8 192 0.0 3.2 0.00 0.00 0.00 95 1010.7
20260903104350 8 255 0.0 1.6 0.00 0.00 0.00 96 1011.0
20260903103848 8 120 0.0 1.6 0.00 0.00 0.00 95 1010.9
20260903103344 8 105 0.0 3.2 0.00 0.00 0.00 96 1011.0
20260903102838 8 117 1.6 9.7 0.00 0.00 0.00 96 1010.9
20260903102333 8 94 3.2 8.0 0.00 0.00 0.00 96 1010.7
20260903101833 8 79 4.8 8.0 0.00 0.00 0.00 96 1010.9
20260903101328 8 99 6.4 8.0 0.00 0.00 0.00 96 1010.9
20260903100823 8 98 4.8 8.0 0.00 0.00 0.00 96 1011.1
20260903100317 8 105 4.8 6.4 0.00 0.00 0.00 96 1011.0
20260903095815 8 40 1.6 3.2 0.00 0.00 0.00 96 1010.9
20260903095309 8 99 0.0 3.2 0.00 0.00 0.00 96 1011.1
20260903094805 8 83 1.6 3.2 0.00 0.00 0.00 96 1011.1
20260903094259 8 45 3.2 3.2 0.00 0.00 0.00 96 1011.0
20260903093755 8 57 1.6 3.2 0.00 0.00 0.00 96 1010.9
20260903093250 8 94 3.2 3.2 0.00 0.00 0.00 95 1011.0
20260903092750 8 95 3.2 3.2 0.00 0.00 0.00 95 1011.0
20260903092245 8 56 3.2 3.2 0.00 0.00 0.00 95 1011.1
20260903091743 8 45 3.2 4.8 0.00 0.00 0.00 96 1010.8
20260903091232 8 85 3.2 3.2 0.00 0.00 0.00 95 1010.9
20260903090728 8 98 0.0 1.6 0.00 0.00 0.00 95 1010.9
20260903090227 8 90 1.6 3.2 0.00 0.00 0.00 95 1011.3
20260903085726 8 203 0.0 3.2 0.00 0.00 0.00 95 1010.8
20260903085221 8 261 3.2 4.8 0.00 0.00 0.00 95 1011.0
20260903084718 8 258 3.2 4.8 0.00 0.00 0.00 95 1011.1
20260903084214 8 90 0.0 0.0 0.00 0.00 0.00 95 1010.9
20260903083710 8 111 1.6 4.8 0.00 0.00 0.00 95 1010.6
20260903083209 8 103 3.2 4.8 0.00 0.00 0.00 95 1010.8
20260903082703 8 103 1.6 4.8 0.00 0.00 0.00 95 1010.7
20260903082159 8 113 3.2 6.4 0.00 0.00 0.00 95 1010.7
20260903081653 8 86 4.8 9.7 0.00 0.00 0.00 95 1010.6
20260903081150 8 123 4.8 4.8 0.00 0.00 0.00 95 1010.6
20260903080645 8 108 4.8 8.0 0.00 0.00 0.00 95 1010.6
20260903080143 8 103 0.0 3.2 0.00 0.00 0.00 95 1010.8
20260903075642 8 90 4.8 4.8 0.00 0.00 0.00 95 1010.4
20260903075137 8 94 3.2 4.8 0.00 0.00 0.00 94 1010.6
20260903074636 8 69 4.8 4.8 0.00 0.00 0.00 94 1010.0
20260903074132 8 65 3.2 3.2 0.00 0.00 0.00 94 1010.3
20260903073627 8 73 3.2 3.2 0.00 0.00 0.00 94 1010.4
20260903073122 8 99 4.8 6.4 0.00 0.00 0.00 93 1010.4
20260903072618 8 114 0.0 4.8 0.00 0.00 0.00 93 1010.1
20260903072114 8 139 3.2 4.8 0.00 0.00 0.00 93 1010.5
20260903071611 8 99 0.0 11.3 0.00 0.00 0.00 93 1010.3
20260903071111 8 72 9.7 11.3 0.00 0.00 0.00 93 1010.4
20260903070605 8 48 3.2 6.4 0.00 0.00 0.00 93 1009.9
20260903065600 8 99 4.8 6.4 0.00 0.00 0.00 93 1010.4
20260903065055 8 123 4.8 8.0 0.00 0.00 0.00 93 1010.4
20260903064554 8 152 3.2 6.4 0.00 0.00 0.00 93 1010.0
20260903064050 8 104 8.0 14.5 0.00 0.00 0.00 92 1009.9
20260903063545 9 121 6.4 14.5 0.00 0.00 0.00 93 1010.1
20260903063041 8 123 3.2 12.9 0.00 0.00 0.00 93 1010.5
20260903062536 8 114 0.0 3.2 0.00 0.00 0.00 94 1010.0
20260903062031 8 92 9.7 9.7 0.00 0.00 0.00 94 1010.0
20260903061527 8 98 4.8 6.4 0.00 0.00 0.00 93 1010.0
20260903061026 8 99 0.0 3.2 0.00 0.00 0.00 93 1010.3
20260903060525 8 111 0.0 8.0 0.00 0.00 0.00 93 1010.3
20260903060021 8 131 1.6 3.2 0.00 0.74 0.74 93 1010.3
20260903055518 8 81 0.0 1.6 0.00 0.74 0.74 93 1010.3
20260903055017 8 146 3.2 6.4 0.00 0.74 0.74 92 1010.4
20260903054513 9 129 4.8 9.7 0.00 0.74 0.74 92 1010.4
20260903054008 9 108 6.4 6.4 0.00 0.74 0.74 92 1010.0
20260903053503 9 105 4.8 6.4 0.00 0.74 0.74 92 1010.3
20260903052959 9 99 6.4 6.4 0.00 0.74 0.74 91 1010.5
20260903052455 10 90 3.2 11.3 0.00 0.74 0.74 91 1010.3
20260903051950 10 90 3.2 4.8 0.00 0.74 0.74 91 1010.6
20260903051445 10 114 1.6 4.8 0.00 0.74 0.74 91 1010.5
20260903050941 10 90 4.8 8.0 0.00 0.74 0.74 90 1010.3
20260903050440 10 90 0.0 4.8 0.00 0.74 0.74 90 1010.5
20260903045934 10 105 4.8 8.0 0.00 0.74 0.74 90 1010.6
20260903045430 10 105 9.7 9.7 0.00 0.74 0.74 91 1010.7
20260903044927 10 81 0.0 11.3 0.00 0.74 0.74 91 1010.6
20260903044427 10 129 9.7 14.5 0.00 0.74 0.74 90 1010.7
20260903043923 10 112 11.3 16.1 0.00 0.74 0.74 90 1010.6
20260903043419 10 106 8.0 19.3 0.00 0.74 0.74 90 1010.8
20260903042917 10 100 4.8 12.9 0.00 0.74 0.74 89 1010.5
20260903042413 10 103 9.7 16.1 0.00 0.74 0.74 89 1010.8
20260903041908 10 90 16.1 20.9 0.00 0.74 0.74 89 1010.6
20260903041404 10 112 4.8 14.5 0.00 0.74 0.74 89 1010.6
20260903040900 10 118 9.7 12.9 0.00 0.74 0.74 90 1010.7
20260903040359 10 121 6.4 11.3 0.00 0.74 0.74 89 1010.9
20260903035854 10 102 8.0 12.9 0.00 0.74 0.74 90 1010.5
20260903035350 10 102 8.0 14.5 0.00 0.74 0.74 90 1010.7
20260903034840 10 115 8.0 17.7 0.00 0.74 0.74 90 1010.9
20260903034335 10 109 6.4 11.3 0.00 0.74 0.74 90 1010.6
20260903033830 10 96 9.7 14.5 0.00 0.74 0.74 89 1010.7
20260903033325 11 82 4.8 11.3 0.00 0.74 0.74 88 1010.8
20260903032824 11 96 4.8 8.0 0.00 0.74 0.74 88 1010.8
20260903032320 11 94 3.2 8.0 0.00 0.74 0.74 88 1010.4
20260903031816 11 99 8.0 8.0 0.00 0.74 0.74 88 1010.6
20260903031315 11 87 6.4 8.0 0.00 0.74 0.74 88 1010.7
20260903030811 11 124 6.4 9.7 0.00 0.74 0.74 88 1010.6
20260903030307 11 66 3.2 9.7 0.00 0.74 0.74 88 1010.5
20260903025802 11 74 8.0 9.7 0.00 0.74 0.74 87 1010.7
20260903025258 11 98 3.2 11.3 0.00 0.74 0.74 87 1010.6
20260903024752 11 34 4.8 11.3 0.00 0.74 0.74 87 1010.6
20260903024251 11 93 4.8 11.3 0.00 0.74 0.74 87 1010.5
20260903023747 12 106 6.4 11.3 0.00 0.74 0.74 87 1010.5
20260903023243 12 107 8.0 11.3 0.00 0.74 0.74 86 1010.6
20260903022743 12 107 6.4 14.5 0.00 0.74 0.74 85 1010.5